GW4124 Weather Reports


time (UTC)temp
F
wind
direction
speed
knots
gust
knots
rain 1hr
in
rain 24hr
in
rain mn
in
humidity
%
barometer
mb
20260504221143 80 247 2.6 5.2 0.00 0.01 0.01 43 1001.6
20260504220639 82 199 1.7 6.1 0.00 0.01 0.01 43 1001.5
20260504220137 83 210 2.6 5.2 0.00 0.01 0.01 40 1001.6
20260504215633 82 204 4.3 5.2 0.00 0.01 0.01 44 1001.4
20260504215131 83 216 1.7 3.5 0.00 0.01 0.01 41 1001.8
20260504214626 83 238 1.7 2.6 0.00 0.01 0.01 42 1001.6
20260504214123 81 218 2.6 2.6 0.00 0.01 0.01 43 1001.8
20260504213619 80 206 2.6 3.5 0.00 0.01 0.01 46 1001.7
20260504213116 82 180 3.5 5.2 0.00 0.01 0.01 44 1001.6
20260504212612 83 206 3.5 6.1 0.00 0.01 0.01 43 1001.6
20260504212110 83 190 6.1 8.7 0.00 0.01 0.01 42 1001.6
20260504211607 83 220 3.5 3.5 0.00 0.01 0.01 42 1001.7
20260504211103 83 190 2.6 3.5 0.00 0.01 0.01 40 1001.8
20260504210601 83 185 2.6 3.5 0.00 0.01 0.01 44 1001.6
20260504210057 83 200 1.7 2.6 0.00 0.01 0.01 40 1001.8
20260504205555 83 218 2.6 6.1 0.00 0.01 0.01 40 1001.8
20260504205052 82 187 1.7 5.2 0.00 0.01 0.01 44 1001.8
20260504204550 82 234 1.7 6.1 0.00 0.01 0.01 41 1001.9
20260504204049 82 218 2.6 7.0 0.00 0.01 0.01 44 1001.9
20260504203547 82 239 2.6 2.6 0.00 0.01 0.01 40 1002.1
20260504203044 82 184 0.9 1.7 0.00 0.01 0.01 42 1001.9
20260504202539 82 189 6.1 7.8 0.00 0.01 0.01 42 1002.0
20260504202037 83 198 3.5 5.2 0.00 0.01 0.01 45 1002.1
20260504201533 83 235 2.6 2.6 0.00 0.01 0.01 43 1002.2
20260504201032 83 227 4.3 6.1 0.00 0.01 0.01 41 1002.1
20260504200527 82 261 1.7 5.2 0.00 0.01 0.01 48 1002.2
20260504200024 82 273 4.3 6.1 0.00 0.01 0.01 40 1002.1
20260504195520 82 202 3.5 5.2 0.00 0.01 0.01 45 1002.2
20260504195017 81 166 2.6 3.5 0.00 0.01 0.01 45 1002.2
20260504194514 82 187 4.3 5.2 0.00 0.01 0.01 47 1002.6
20260504194009 81 167 3.5 6.1 0.00 0.01 0.01 43 1002.6
20260504193506 82 255 2.6 3.5 0.00 0.01 0.01 43 1002.5
20260504193005 82 239 3.5 5.2 0.00 0.01 0.01 43 1002.6
20260504192503 81 208 1.7 3.5 0.00 0.01 0.01 43 1002.5
20260504192001 81 160 3.5 6.1 0.00 0.01 0.01 44 1002.6
20260504191458 80 207 4.3 5.2 0.00 0.01 0.01 44 1002.7
20260504190954 81 199 1.7 6.1 0.00 0.01 0.01 44 1002.5
20260504190449 80 212 5.2 7.0 0.00 0.01 0.01 46 1002.7
20260504185946 80 200 1.7 7.0 0.00 0.01 0.01 42 1002.6
20260504185444 81 219 3.5 5.2 0.00 0.01 0.01 48 1002.7
20260504184939 81 266 1.7 2.6 0.00 0.01 0.01 41 1002.7
20260504184435 80 217 1.7 6.1 0.00 0.01 0.01 46 1002.9
20260504183931 80 194 1.7 2.6 0.00 0.01 0.01 44 1002.8
20260504183429 79 210 2.6 6.1 0.00 0.01 0.01 48 1002.8
20260504182927 80 201 2.6 5.2 0.00 0.01 0.01 47 1003.0
20260504182423 79 188 0.9 1.7 0.00 0.01 0.01 47 1002.7
20260504181921 79 190 4.3 7.8 0.00 0.01 0.01 49 1003.0
20260504181418 78 196 2.6 5.2 0.00 0.01 0.01 49 1003.0
20260504180916 78 210 1.7 6.1 0.00 0.01 0.01 48 1003.1
20260504180415 79 152 5.2 7.8 0.00 0.01 0.01 45 1003.0
20260504175913 79 223 3.5 5.2 0.00 0.01 0.01 45 1003.1
20260504175409 78 182 4.3 7.8 0.00 0.01 0.01 50 1003.0
20260504174907 78 195 1.7 5.2 0.00 0.01 0.01 47 1003.2
20260504174404 78 202 2.6 6.1 0.00 0.01 0.01 47 1003.0
20260504173902 78 248 3.5 6.1 0.00 0.01 0.01 45 1003.2
20260504173358 78 251 1.7 7.8 0.00 0.01 0.01 47 1003.2
20260504172855 78 173 7.0 8.7 0.00 0.01 0.01 46 1003.2
20260504172351 77 186 4.3 5.2 0.00 0.01 0.01 55 1003.1
20260504171847 78 225 2.6 5.2 0.00 0.01 0.01 46 1003.3
20260504171345 77 208 2.6 5.2 0.00 0.01 0.01 46 1003.4
20260504170842 78 190 2.6 3.5 0.00 0.01 0.01 47 1003.4
20260504170338 77 222 1.7 2.6 0.00 0.01 0.01 49 1003.5
20260504160257 75 184 3.5 5.2 0.00 0.01 0.01 51 1003.7
20260504150722 73 215 2.6 6.1 0.00 0.01 0.01 55 1003.8
20260504150219 72 181 3.5 3.5 0.00 0.01 0.01 56 1003.6
20260504141148 69 181 7.8 9.6 0.00 0.01 0.01 57 1004.1
20260504140645 69 213 4.3 6.1 0.00 0.01 0.01 57 1004.3
20260504140140 68 192 2.6 6.1 0.00 0.01 0.01 61 1004.3
20260504130609 64 191 3.5 5.2 0.00 0.01 0.01 71 1004.4
20260504130106 63 188 3.5 3.5 0.00 0.01 0.01 71 1004.5
20260504110451 56 189 3.5 3.5 0.00 0.01 0.01 80 1004.5
20260504100407 54 146 0.0 0.0 0.00 0.01 0.01 81 1005.3
20260504081754 55 165 0.0 1.7 0.00 0.01 0.01 83 1006.6
20260504081251 55 168 0.0 0.9 0.00 0.01 0.01 84 1006.6
20260504080748 54 158 0.0 0.9 0.00 0.01 0.01 87 1006.7
20260504080244 55 110 0.0 0.9 0.00 0.01 0.01 90 1006.7
20260504070211 56 152 0.0 0.0 0.00 0.01 0.01 82 1007.5
20260504060132 57 2 1.7 1.7 0.00 0.01 0.01 83 1008.3
20260504050600 58 171 0.9 0.9 0.00 0.00 0.00 70 1008.9
20260504045554 58 153 0.0 0.0 0.00 0.00 0.00 69 1008.6
20260504045049 58 152 0.0 0.0 0.00 0.00 0.00 71 1008.7
20260504044547 59 156 0.0 0.9 0.00 0.00 0.00 70 1008.9
20260504044043 59 124 0.0 0.0 0.00 0.00 0.00 70 1009.2
20260504043541 59 168 0.0 0.0 0.00 0.00 0.00 66 1009.2
20260504043038 58 172 0.9 2.6 0.00 0.00 0.00 65 1009.5
20260504042535 59 168 0.9 1.7 0.00 0.00 0.00 68 1009.2
20260504042032 59 170 0.0 0.0 0.00 0.00 0.00 67 1009.3
20260504041528 59 170 0.0 0.0 0.00 0.00 0.00 66 1009.2
20260504041024 59 170 0.0 0.0 0.00 0.00 0.00 66 1009.1
20260504040522 59 170 0.0 0.0 0.00 0.00 0.00 68 1009.2
20260504040018 59 170 0.0 0.0 0.00 0.00 0.00 65 1009.1
20260504035515 59 171 0.0 0.9 0.00 0.00 0.00 66 1009.2
20260504035011 60 171 0.0 0.0 0.00 0.00 0.00 64 1009.4
20260504034509 59 171 0.0 0.9 0.00 0.00 0.00 64 1009.3
20260504034006 60 170 0.9 0.9 0.00 0.00 0.00 64 1009.6
20260504033504 60 135 0.0 0.0 0.00 0.00 0.00 63 1009.3
20260504033001 60 135 0.0 0.0 0.00 0.00 0.00 59 1009.3
20260504032458 60 167 0.0 1.7 0.00 0.00 0.00 62 1009.5
20260504031954 60 155 1.7 1.7 0.00 0.00 0.00 56 1009.6
20260504031451 58 109 0.0 0.0 0.00 0.00 0.00 67 1009.2
20260504030948 59 108 0.0 0.0 0.00 0.00 0.00 69 1009.4
20260504030445 59 108 0.0 0.0 0.00 0.00 0.00 67 1009.3
20260504025941 59 108 0.0 0.0 0.00 0.00 0.00 65 1009.5
20260504025438 60 108 0.0 0.0 0.00 0.00 0.00 64 1009.3
20260504024935 59 108 0.0 0.0 0.00 0.00 0.00 63 1009.4
20260504024432 59 108 0.0 0.0 0.00 0.00 0.00 65 1009.4
20260504023929 60 108 0.0 0.0 0.00 0.00 0.00 63 1009.4
20260504023425 60 108 0.0 0.0 0.00 0.00 0.00 63 1009.3
20260504022921 60 108 0.0 0.0 0.00 0.00 0.00 63 1009.5
20260504022418 60 108 0.0 0.0 0.00 0.00 0.00 63 1009.2
20260504021914 61 108 0.0 0.0 0.00 0.00 0.00 62 1009.5
20260504021412 61 108 0.0 0.0 0.00 0.00 0.00 62 1009.4
20260504020909 61 108 0.0 0.0 0.00 0.00 0.00 60 1009.5
20260504020405 61 108 0.0 0.0 0.00 0.00 0.00 62 1009.5
20260504015902 62 108 0.0 0.0 0.00 0.00 0.00 65 1009.4
20260504015358 62 108 0.0 0.0 0.00 0.00 0.00 62 1009.2
20260504014854 63 108 0.0 0.0 0.00 0.00 0.00 58 1009.6
20260504014350 63 109 0.0 0.0 0.00 0.00 0.00 54 1009.4
20260504013847 63 109 0.0 0.0 0.00 0.00 0.00 55 1009.5
20260504013345 64 108 0.0 0.0 0.00 0.00 0.00 57 1009.5
20260504012842 64 109 0.0 0.0 0.00 0.00 0.00 57 1009.6
20260504012339 65 109 0.0 0.0 0.00 0.00 0.00 61 1009.6
20260504011837 66 108 0.0 0.0 0.00 0.00 0.00 59 1009.4
20260504011333 66 108 0.0 0.0 0.00 0.00 0.00 59 1009.6
20260504010829 68 135 0.0 0.0 0.00 0.00 0.00 49 1009.5
20260504010325 68 148 0.0 0.0 0.00 0.00 0.00 48 1009.4
20260504005822 68 149 0.0 0.0 0.00 0.00 0.00 49 1009.5
20260504005319 68 128 0.0 0.0 0.00 0.00 0.00 55 1009.4
20260504004816 69 128 0.0 0.0 0.00 0.00 0.00 54 1009.4
20260504004314 70 128 0.0 0.0 0.00 0.00 0.00 53 1009.6
20260504003810 71 168 0.0 0.0 0.00 0.00 0.00 46 1009.4
20260504003307 72 168 0.0 0.0 0.00 0.00 0.00 41 1009.7
20260504002803 72 169 0.0 0.9 0.00 0.00 0.00 40 1009.6
20260504002300 73 168 0.0 0.0 0.00 0.00 0.00 40 1009.7
20260504001758 74 168 0.0 0.9 0.00 0.00 0.00 42 1009.8
20260504001255 75 159 0.0 0.0 0.00 0.00 0.00 39 1009.8
20260504000752 75 166 0.0 0.0 0.00 0.00 0.00 39 1009.8
20260504000249 75 168 0.0 0.9 0.00 0.00 0.00 39 1009.6
20260503235747 75 161 0.9 1.7 0.00 0.00 0.00 40 1009.7
20260503235244 75 158 0.0 0.9 0.00 0.00 0.00 40 1009.8
20260503234741 76 236 2.6 3.5 0.00 0.00 0.00 36 1009.9
20260503234239 76 168 0.0 0.9 0.00 0.00 0.00 39 1010.0
20260503233736 75 168 0.0 0.9 0.00 0.00 0.00 39 1010.0
20260503233231 75 263 1.7 3.5 0.00 0.00 0.00 37 1010.0
20260503232728 75 175 0.9 0.9 0.00 0.00 0.00 39 1010.0
20260503232226 75 168 0.0 1.7 0.00 0.00 0.00 40 1009.8
20260503231724 75 260 0.9 1.7 0.00 0.00 0.00 37 1009.9
20260503231220 75 252 1.7 5.2 0.00 0.00 0.00 37 1009.8
20260503230717 75 195 0.9 2.6 0.00 0.00 0.00 38 1010.0
20260503230214 75 170 1.7 2.6 0.00 0.00 0.00 36 1009.8
20260503225711 76 284 2.6 3.5 0.00 0.00 0.00 36 1010.0
20260503225211 75 209 1.7 2.6 0.00 0.00 0.00 37 1010.1
20260503224709 75 221 1.7 3.5 0.00 0.00 0.00 35 1010.0
20260503224207 75 289 2.6 3.5 0.00 0.00 0.00 35 1010.1
20260503223704 76 282 2.6 3.5 0.00 0.00 0.00 36 1009.9
20260503223201 76 198 0.9 2.6 0.00 0.00 0.00 36 1010.1
20260503222658 77 208 0.9 3.5 0.00 0.00 0.00 37 1010.0
20260503222156 77 182 0.9 1.7 0.00 0.00 0.00 34 1010.0
20260503221654 79 224 1.7 3.5 0.00 0.00 0.00 34 1010.0